Regional Weather Roundup
Issued by NWS

Home | Current Version | Previous Version | Text Only | Print | Product List | Glossary Off
Versions: 1 2 3 4 5 6 7 8 9 10 11 12 13 14 15 16 17 18 19 20 21 22 23 24 25 26 27 28 29 30 31 32 33 34 35 36 37 38 39 40 41 42 43 44 45 46 47 48 49 50

000
ASUS43 KDTX 211710
RWRMI
MICHIGAN HOURLY REGIONAL WEATHER ROUNDUP
NATIONAL WEATHER SERVICE DETROIT/PONTIAC MI
ISSUED BY NATIONAL WEATHER SERVICE GRAND RAPIDS MI
100 PM EDT MON AUG 21 2017

NOTE: "FAIR" INDICATES FEW OR NO CLOUDS BELOW 12,000 FEET WITH NO
SIGNIFICANT WEATHER AND/OR OBSTRUCTION TO VISIBILITY.

MIZ047>049-052>055-059>063-066>070-074>076-081>083-211800-
SOUTHEAST LOWER MICHIGAN

CITY           SKY/WX    TMP DP  RH WIND       PRES   REMARKS
ADRIAN         PTSUNNY   84  67  56 S7        30.10F
ALMA           MOSUNNY   84  65  54 CALM      30.07S
ANN ARBOR      MOSUNNY   87  67  51 S9        30.09F HX  90
BAD AXE        MOSUNNY   84  69  60 CALM      30.08F
DETROIT CITY   SUNNY     87  66  49 S7        30.08F
DETROIT        MOSUNNY   87  68  52 S8        30.09F HX  90
FLINT          SUNNY     86  67  52 VRB6      30.07F
GROSSE ILE     MOSUNNY   79  72  77 S8        30.09F
HILLSDALE      CLOUDY    82  70  65 S7        30.10S
HOWELL         SUNNY     86  65  49 S6        30.08F

CITY           SKY/WX    TMP DP  RH WIND       PRES   REMARKS
JACKSON        MOSUNNY   85  66  53 S13       30.09S
LANSING        MOSUNNY   87  67  51 VRB6      30.07F HX  90
MASON          MOSUNNY   88  67  50 S6        30.08S HX  90
MONROE         PTSUNNY   85  65  50 SE9G17    30.09S
MT. CLEMENS    MOSUNNY   85  70  62 S9        30.07F
PONTIAC        MOSUNNY   86  63  45 SW8       30.08F
PORT HOPE        N/A     76  70  82 NE7       30.05F
PORT HURON     SUNNY     86  64  48 S6        30.09S
TRI CITIES     MOSUNNY   84  70  62 VRB5      30.07F
YPSILANTI      SUNNY     89  69  51 SE10      30.09F HX  93
$$
MIZ043>046-050>051-056>058-064>065-071>073-077>080-211800-
SOUTHWEST LOWER MICHIGAN

CITY           SKY/WX    TMP DP  RH WIND       PRES   REMARKS
BATTLE CREEK   PTSUNNY   85  70  60 SW9       30.09S
BENTON HARBOR  CLOUDY    81  70  69 W14       30.09R
BIG RAPIDS     MOSUNNY   82  67  60 S5        30.06S
COLDWATER      MOSUNNY   85  69  59 S6        30.09S
HOLLAND        PTSUNNY   79  70  74 SW15      30.10R
GRAND RAPIDS   PTSUNNY   84  70  62 VRB6      30.07S
KALAMAZOO      PTSUNNY   86  68  54 W8        30.08S
MARSHALL       CLOUDY    84  69  60 SW9       30.09R
MOUNT PLEASANT MOSUNNY   86  66  50 CALM      30.05F
MUSKEGON       CLOUDY    80  69  69 SW10      30.09R
STURGIS        PTSUNNY   83  73  70 SW9G17    30.08F
$$
MIZ016>042-211800-
NORTHERN LOWER MICHIGAN

CITY           SKY/WX    TMP DP  RH WIND       PRES   REMARKS
ALPENA         MOSUNNY   82  70  66 SW7       30.05F
BEAVER ISLAND  MOSUNNY   80  66  61 W5        30.04F
BELLAIRE       MOSUNNY   78  66  66 CALM      30.04F
CADILLAC       MOSUNNY   83  60  45 S6        30.07F
CHARLEVOIX     MOSUNNY   78  69  75 W5        30.07F
GAYLORD        CLOUDY    80  61  52 W9        30.07F
HOUGHTON LAKE  PTSUNNY   81  64  56 SW3       30.07F
MANISTEE       CLOUDY    80  69  69 W6        30.04S
OSCODA         CLOUDY    87  62  42 CALM      30.05S
PELLSTON       CLOUDY    81  66  60 VRB5      30.04S
TRAVERSE CITY  CLOUDY    81  67  62 N5        30.02F
LUDINGTON      CLOUDY    78  70  77 W8        30.05R
$$
MIZ007>008-015-211800-
EASTERN UPPER MICHIGAN

CITY           SKY/WX    TMP DP  RH WIND       PRES   REMARKS
KINROSS        MOSUNNY   79  63  57 W7        30.03F
MACKINAC ISLAN SUNNY     75  68  80 W3        30.04F
NEWBERRY       SUNNY     78  60  54 W7        30.03S HAZE
S. S. MARIE    SUNNY     78  60  53 W7        30.02F
$$
MIZ004>006-011>014-085-211800-
CENTRAL UPPER MICHIGAN

CITY           SKY/WX    TMP DP  RH WIND       PRES   REMARKS
MANISTIQUE     SUNNY     75  62  64 S5        30.03S
ESCANABA       MOSUNNY   79  64  60 SE7       30.02F
MENOMINEE      CLOUDY    75  59  57 E5        30.03F
SAWYER-GWINN   SUNNY     75  50  41 CALM      30.05F
$$
MIZ001>003-009>011-084-211800-
WESTERN UPPER MICHIGAN

CITY           SKY/WX    TMP DP  RH WIND       PRES   REMARKS
IRON MOUNTAIN  MOSUNNY   77  53  43 CALM      30.03F
HOUGHTON       CLOUDY    73  54  51 SW5       30.02F
COPPER HARBOR    N/A     66  58  75 N10       30.01F
IRONWOOD       MOSUNNY   74  52  46 S5        30.02F
$$

ABBREVIATIONS USED IN REMARKS
   TC - TEMPERATURE IN CELSIUS
  WCI - WIND CHILL INDEX
   HX - HEAT INDEX
  VSB - VISIBILITY





USA.gov is the U.S. government's official web portal to all federal, state and local government web resources and services.